Wetterdaten: aktuell Montag, 18.11.2019 01:55
Datum Zeit Temp. A. 5 cm .Temp Feuchte A. BlattFeu 1 Luftdruck Regen Wind UV Solar Windchill Windben
18.11.2019 01:55 1,2 C 1,1 C 86 % 14 lf 1006,0 hPa 0,0 l/m 11,4 km/h (2 Bft) 0,0 UV-I 0 W/m -3,2 C 20,9 km/h (4 Bft)
18.11.2019 01:50 1,2 C 1,1 C 86 % 14 lf 1006,1 hPa 0,0 l/m 11,9 km/h (2 Bft) 0,0 UV-I 0 W/m -3,5 C 19,3 km/h (3 Bft)
18.11.2019 01:45 1,2 C 1,1 C 86 % 14 lf 1006,3 hPa 0,0 l/m 9,8 km/h (2 Bft) 0,0 UV-I 0 W/m -2,0 C 16,1 km/h (3 Bft)
18.11.2019 01:40 1,2 C 0,6 C 86 % 14 lf 1006,1 hPa 0,2 l/m 11,9 km/h (2 Bft) 0,0 UV-I 0 W/m -3,5 C 22,5 km/h (4 Bft)
18.11.2019 01:35 1,1 C 0,6 C 86 % 13 lf 1005,8 hPa 0,0 l/m 12,9 km/h (3 Bft) 0,0 UV-I 0 W/m -4,3 C 25,7 km/h (4 Bft)
18.11.2019 01:30 1,1 C 0,6 C 86 % 13 lf 1005,9 hPa 0,2 l/m 15,1 km/h (3 Bft) 0,0 UV-I 0 W/m -5,7 C 24,1 km/h (4 Bft)
18.11.2019 01:25 1,1 C 0,6 C 86 % 13 lf 1006,1 hPa 0,2 l/m 16,6 km/h (3 Bft) 0,0 UV-I 0 W/m -6,5 C 25,7 km/h (4 Bft)
18.11.2019 01:20 1,1 C 0,6 C 86 % 13 lf 1005,9 hPa 0,2 l/m 15,6 km/h (3 Bft) 0,0 UV-I 0 W/m -6,0 C 29,0 km/h (5 Bft)
18.11.2019 01:15 1,2 C 0,6 C 86 % 13 lf 1005,9 hPa 0,2 l/m 16,0 km/h (3 Bft) 0,0 UV-I 0 W/m -6,1 C 25,7 km/h (4 Bft)
18.11.2019 01:10 1,3 C 0,6 C 86 % 13 lf 1005,9 hPa 0,0 l/m 14,7 km/h (3 Bft) 0,0 UV-I 0 W/m -5,2 C 27,4 km/h (4 Bft)
18.11.2019 01:05 1,4 C 1,1 C 86 % 13 lf 1005,9 hPa 0,4 l/m 16,8 km/h (3 Bft) 0,0 UV-I 0 W/m -6,3 C 27,4 km/h (4 Bft)
18.11.2019 01:00 1,4 C 1,1 C 86 % 13 lf 1005,8 hPa 0,0 l/m 15,4 km/h (3 Bft) 0,0 UV-I 0 W/m -5,5 C 25,7 km/h (4 Bft)
18.11.2019 00:55 1,4 C 1,1 C 86 % 13 lf 1005,8 hPa 0,2 l/m 21,1 km/h (4 Bft) 0,0 UV-I 0 W/m -8,3 C 37,0 km/h (5 Bft)
18.11.2019 00:50 1,6 C 1,1 C 86 % 13 lf 1006,1 hPa 0,0 l/m 17,6 km/h (3 Bft) 0,0 UV-I 0 W/m -6,4 C 29,0 km/h (5 Bft)
18.11.2019 00:45 1,6 C 1,1 C 86 % 13 lf 1006,2 hPa 0,2 l/m 19,0 km/h (3 Bft) 0,0 UV-I 0 W/m -7,1 C 30,6 km/h (5 Bft)
18.11.2019 00:40 1,6 C 1,1 C 86 % 13 lf 1006,0 hPa 0,0 l/m 20,8 km/h (4 Bft) 0,0 UV-I 0 W/m -7,9 C 32,2 km/h (5 Bft)
18.11.2019 00:35 1,6 C 1,1 C 86 % 13 lf 1006,3 hPa 0,2 l/m 15,9 km/h (3 Bft) 0,0 UV-I 0 W/m -5,5 C 30,6 km/h (5 Bft)
18.11.2019 00:30 1,6 C 1,1 C 86 % 13 lf 1006,4 hPa 0,0 l/m 15,7 km/h (3 Bft) 0,0 UV-I 0 W/m -5,4 C 25,7 km/h (4 Bft)
18.11.2019 00:25 1,6 C 1,1 C 86 % 13 lf 1006,3 hPa 0,2 l/m 12,9 km/h (3 Bft) 0,0 UV-I 0 W/m -3,8 C 27,4 km/h (4 Bft)
18.11.2019 00:20 1,6 C 1,1 C 86 % 13 lf 1006,4 hPa 0,2 l/m 15,7 km/h (3 Bft) 0,0 UV-I 0 W/m -5,4 C 29,0 km/h (5 Bft)
18.11.2019 00:15 1,6 C 1,1 C 86 % 12 lf 1006,4 hPa 0,2 l/m 16,8 km/h (3 Bft) 0,0 UV-I 0 W/m -6,0 C 24,1 km/h (4 Bft)
18.11.2019 00:10 1,6 C 1,1 C 86 % 12 lf 1006,4 hPa 0,0 l/m 15,0 km/h (3 Bft) 0,0 UV-I 0 W/m -5,0 C 27,4 km/h (4 Bft)
18.11.2019 00:05 1,6 C 1,1 C 86 % 12 lf 1006,4 hPa 0,0 l/m 14,4 km/h (3 Bft) 0,0 UV-I 0 W/m -4,7 C 22,5 km/h (4 Bft)
18.11.2019 00:00 1,6 C 1,1 C 86 % 12 lf 1006,4 hPa 0,4 l/m 14,1 km/h (3 Bft) 0,0 UV-I 0 W/m -4,5 C 24,1 km/h (4 Bft)
_ Min-Zeit 01:20 01:10 00:00 00:00 00:55 - 01:45 - - 00:55 01:45
Minimum _ 1,1 C 0,6 C 86 % 12 lf 1005,8 hPa - 9,8 km/h (2 Bft) - - -8,3 C 16,1 km/h (3 Bft)
_ Max-Zeit 00:00 00:00 00:00 01:40 00:00 00:00 00:55 00:00 00:00 01:45 00:55
Maximum _ 1,7 C 1,1 C 86 % 14 lf 1006,4 hPa 0,4 l/m 21,1 km/h
NW (4 Bft)
0,0 UV-I 0 W/m -2,0 C 37,0 km/h
N-NW (5 Bft)
Durchschnitt _ 1,4 C 1,0 C 86 % 13 lf 1006,1 hPa #3,0 l/m 15,3 km/h (3 Bft) 0,0 UV-I 0 W/m -5,3 C 26,2 km/h (4 Bft)